Weather Roundup
Issued by NWS Chicago, IL

Home | Current Version | Previous Version | Text Only | Print | Product List | Glossary On
Versions: 1 2 3 4 5 6 7 8 9 10 11 12 13 14 15 16 17 18 19 20 21 22 23 24 25 26 27 28 29 30 31 32 33 34 35 36 37 38 39 40 41 42 43 44 45 46 47 48 49 50
000
NZUS59 KLOT 292110
HRRLOT

CHICAGO AREA WEATHER ROUNDUP
NATIONAL WEATHER SERVICE CHICAGO/ROMEOVILLE IL
300 PM CST THU JAN 29 2015

NOTE: "FAIR" INDICATES FEW OR NO CLOUDS BELOW 12,000 FEET WITH NO
SIGNIFICANT WEATHER AND/OR OBSTRUCTIONS TO VISIBILITY.

* THESE STATIONS ARE NOT UNDER NWS QUALITY CONTROL. THEY ALSO MAY NOT
  REPORT WEATHER SUCH AS PRECIPITATION OR FOG.

ILZ005-006-012>014-019>023-292200-
NORTHEAST ILLINOIS

CITY           SKY/WX    TMP DP  RH WIND       PRES   REMARKS
OHARE          CLOUDY    34  26  72 NW13G28   30.02R WCI  25
MIDWAY         CLOUDY    36  27  69 NW16G22   30.02R
AURORA         CLOUDY    35  27  72 NW18      30.05R WCI  24
LANSING*       CLOUDY    34  27  74 NW9G20    30.02R WCI  27
JOLIET*        CLOUDY    34  27  75 NW9G17    30.06R WCI  27
WAUKEGAN       CLOUDY    34  26  72 NW8G18    30.00R WCI  27
DUPAGE AIRPORT LGT RAIN  34  26  72 NW15G24   30.03R WCI  24
WHEELING       CLOUDY    34  26  72 NW20G26   30.03R WCI  23
KANKAKEE*      CLOUDY    34  29  83 NW13      30.05R WCI  25
MORRIS*        CLOUDY    34  31  87 NW12      30.06R WCI  26
LEWIS AIRPORT* CLOUDY    34  27  76 NW15      30.04R WCI  24
NORTHERLY IS     N/A     35  26  70 NW9         N/A  WCI  28
$$

WIZ051-052-058>065-066-070>072-292200-
SOUTHEAST WISCONSIN

CITY           SKY/WX    TMP DP  RH WIND       PRES   REMARKS
MILWAUKEE      CLOUDY    35  23  61 NW21G26   30.00R WCI  24
KENOSHA*       CLOUDY    35  26  69 NW16      30.00R WCI  25
RACINE*        CLOUDY    35  24  64 NW20G25   30.01R WCI  24
BURLINGTON     CLOUDY    32  25  75 NW18G24   30.02R WCI  20
WAUKESHA       CLOUDY    32  25  74 NW17G25   30.00R WCI  21
WEST BEND      CLOUDY    32  23  69 NW13G20   29.99R WCI  22
$$

INZ001>003-010>013-019-020-292200-
NORTHWEST INDIANA

CITY           SKY/WX    TMP DP  RH WIND       PRES   REMARKS
GARY*          CLOUDY    36  25  64 NW12G23   30.02R
MICHIGAN CITY* NOT AVBL
RENSSELAER*    NOT AVBL
VALPARAISO     CLOUDY    33  26  75 NW18G26   29.99R WCI  22
$$

LMZ740>746-292200-
SOUTHERN LAKE MICHIGAN

STATION/POSITION TIME  SKY/WX   TEMP WIND        PRES    VSBY
                                AIR  DIR/SP/G
                 (UTC)          (F)  (DEG/KT/KT) (MB)    (MI)
HARRISON CRIB    2100            34  320/ 16/ 20   N/A
BURNHAM HARBOR   2100            35  310/  8/ 18   N/A
CALUMET HARBOR   2100            34  300/ 10/ 17   N/A
BURNS HARBOR     NOT AVBL
MICHIGAN CITY    2100            33  300/ 24/ 29   N/A
$$

ABBREVIATIONS USED IN REMARKS
   TC - TEMPERATURE IN CELSIUS
  WCI - WIND CHILL INDEX
   HX - HEAT INDEX
  VSB - VISIBILITY
$$


USA.gov is the U.S. government's official web portal to all federal, state and local government web resources and services.